COSMOS 2539 1 44457U 19048A 21056.82271895 .00000077 00000-0 00000+0 0 9995 2 44457 0.0160 128.8420 0000881 326.4213 8.7698 1.00271462 5800 BREEZE-M R/B 1 44458U 19048B 21063.19056187 -.00000149 00000-0 00000-0 0 9991 2 44458 1.4609 88.3945 0708275 78.8804 289.8626 0.90282900 5127 BREEZE-M DEB [TANK] 1 44459U 19048C 21063.50128051 .00001454 00000-0 49038-3 0 9993 2 44459 48.1515 115.1174 6940615 160.8643 250.6174 2.70884506 13910